contact:dominique.lefevre@mio.osupytheas.fr, maurice.libes@osupytheas.fr
Project:EMSO Ligure-ouest http://www.emso-fr.org/EMSO-France
Sensor Aquadopp, line 04 Serial AQD8517 
DOI : "https://doi.org/10.17882/74513; https://doi.org/10.17882/83244" 
Title:EMSO Ligure Ouest : Data ligne ALBATROSS capteur AQUADOPP - deploiement 2021
Id,Date,Profondeur,Latitude,Longitude,X_East,Y_North,Z_Up,Amplitude_X,Amplitude_Y,Amplitude_Z,Batterie,SoundSpeed,Heading,Pitch,Roll,Pressure,Temperature,Speed,Direction
, , m, degrees North, degrees East, m.s-1, m.s-1,m.s-1, 1, 1, 1, Volt, m.s-1, degree, degree, degree, dbar, degree_C, m.s-1, degree
01,2021-11-17T21:30:00,500.0,42.79,6.0312,-0.102,-0.005,0.015,48.0,43.0,43.0,12.6,1505.9,315.7,0.0,0.4,452.724,13.65,0.102,267.2
01,2021-11-17T22:00:00,500.0,42.79,6.0312,-0.081,0.0,0.019,46.0,44.0,44.0,12.6,1505.8,319.6,-0.1,0.7,452.694,13.64,0.08,270.0
01,2021-11-17T22:30:00,500.0,42.79,6.0312,-0.082,0.008,0.001,49.0,43.0,45.0,12.6,1505.9,324.0,-0.5,0.6,452.735,13.66,0.082,275.6
01,2021-11-17T23:00:00,500.0,42.79,6.0312,-0.093,-0.011,0.006,47.0,44.0,43.0,12.6,1505.9,324.6,-0.1,0.7,452.769,13.66,0.093,263.3
01,2021-11-17T23:30:00,500.0,42.79,6.0312,-0.096,0.002,0.015,47.0,43.0,42.0,12.6,1505.9,323.7,-0.4,0.6,452.736,13.67,0.096,271.2
01,2021-11-18T00:00:00,500.0,42.79,6.0312,-0.097,-0.001,0.01,46.0,42.0,42.0,12.6,1505.9,316.0,-0.3,0.7,452.719,13.67,0.097,269.4
01,2021-11-18T00:30:00,500.0,42.79,6.0312,-0.111,0.01,-0.01,47.0,43.0,42.0,12.7,1506.0,319.3,0.1,0.8,452.73,13.68,0.111,275.1
01,2021-11-18T01:00:00,500.0,42.79,6.0312,-0.101,-0.011,0.005,45.0,42.0,41.0,12.6,1506.0,307.8,-0.5,0.5,452.642,13.73,0.101,263.8
01,2021-11-18T01:30:00,500.0,42.79,6.0312,-0.106,0.017,0.005,47.0,42.0,42.0,12.6,1506.0,317.7,-0.2,0.7,452.629,13.7,0.107,279.1
01,2021-11-18T02:00:00,500.0,42.79,6.0312,-0.102,-0.012,0.012,48.0,42.0,41.0,12.6,1506.0,298.9,-0.3,0.6,452.668,13.7,0.102,263.3
01,2021-11-18T02:30:00,500.0,42.79,6.0312,-0.104,0.031,0.018,46.0,42.0,39.0,12.6,1506.0,327.1,0.0,0.6,452.689,13.72,0.108,286.6
01,2021-11-18T03:00:00,500.0,42.79,6.0312,-0.116,-0.009,0.031,45.0,43.0,42.0,12.6,1506.0,303.3,-0.1,0.4,452.661,13.69,0.116,265.6
01,2021-11-18T03:30:00,500.0,42.79,6.0312,-0.091,0.088,0.023,46.0,40.0,42.0,12.6,1505.9,342.1,-0.7,1.0,452.764,13.66,0.126,314.0
01,2021-11-18T04:00:00,500.0,42.79,6.0312,-0.094,0.091,0.016,46.0,43.0,41.0,12.6,1505.9,346.6,-0.7,0.9,452.739,13.67,0.13,314.1
01,2021-11-18T04:30:00,500.0,42.79,6.0312,-0.108,0.058,0.016,47.0,42.0,43.0,12.6,1505.9,339.7,-0.5,0.7,452.731,13.67,0.122,298.2
01,2021-11-18T05:00:00,500.0,42.79,6.0312,-0.106,0.02,0.005,45.0,39.0,43.0,12.6,1506.0,325.1,-0.4,0.6,452.723,13.68,0.107,280.7
01,2021-11-18T05:30:00,500.0,42.79,6.0312,-0.099,0.026,0.015,46.0,42.0,43.0,12.6,1506.0,331.0,-0.5,0.5,452.673,13.69,0.102,284.7
01,2021-11-18T06:00:00,500.0,42.79,6.0312,-0.098,0.023,0.014,46.0,43.0,43.0,12.6,1506.0,326.3,-0.5,0.7,452.677,13.68,0.1,283.2
01,2021-11-18T06:30:00,500.0,42.79,6.0312,-0.097,0.016,0.006,48.0,43.0,42.0,12.6,1506.0,339.5,-0.4,0.6,452.608,13.69,0.098,279.4
01,2021-11-18T07:00:00,500.0,42.79,6.0312,-0.074,0.031,-0.001,47.0,45.0,44.0,12.6,1506.0,339.6,0.1,0.5,452.599,13.71,0.08,292.7
01,2021-11-18T07:30:00,500.0,42.79,6.0312,-0.085,0.032,0.009,46.0,43.0,43.0,12.7,1506.0,338.7,-0.1,0.7,452.647,13.69,0.09,290.6
01,2021-11-18T08:00:00,500.0,42.79,6.0312,-0.085,0.04,0.009,46.0,42.0,43.0,12.6,1506.0,340.1,-0.4,0.6,452.562,13.69,0.093,295.2
01,2021-11-18T08:30:00,500.0,42.79,6.0312,-0.082,0.03,0.015,45.0,42.0,41.0,12.6,1506.0,338.0,-0.3,0.5,452.568,13.69,0.087,290.1
01,2021-11-18T09:00:00,500.0,42.79,6.0312,-0.088,0.035,0.01,45.0,42.0,42.0,12.6,1506.0,337.8,0.1,0.6,452.485,13.68,0.094,291.7
01,2021-11-18T09:30:00,500.0,42.79,6.0312,-0.071,0.01,0.007,47.0,43.0,46.0,12.6,1505.9,340.2,0.3,0.6,452.48,13.65,0.071,278.0
01,2021-11-18T10:00:00,500.0,42.79,6.0312,-0.075,0.024,0.015,45.0,41.0,44.0,12.6,1505.9,336.5,-0.1,0.6,452.5,13.65,0.078,287.7
01,2021-11-18T10:30:00,500.0,42.79,6.0312,-0.079,0.019,-0.011,47.0,42.0,43.0,12.6,1505.8,337.6,-0.6,0.4,452.481,13.63,0.081,283.5
01,2021-11-18T11:00:00,500.0,42.79,6.0312,-0.079,0.021,0.0,47.0,44.0,43.0,12.6,1505.9,330.2,-0.4,0.6,452.466,13.65,0.081,284.9
01,2021-11-18T11:30:00,500.0,42.79,6.0312,-0.079,0.016,0.009,48.0,43.0,43.0,12.6,1505.9,330.8,-0.1,0.6,452.436,13.65,0.08,281.4
01,2021-11-18T12:00:00,500.0,42.79,6.0312,-0.095,0.023,0.005,46.0,43.0,44.0,12.6,1505.9,328.6,-0.1,0.7,452.48,13.65,0.097,283.6
01,2021-11-18T12:30:00,500.0,42.79,6.0312,-0.085,0.023,-0.001,49.0,44.0,42.0,12.7,1505.9,334.0,-0.5,0.7,452.487,13.65,0.088,285.1
01,2021-11-18T13:00:00,500.0,42.79,6.0312,-0.082,0.02,0.01,47.0,41.0,43.0,12.6,1505.9,334.4,0.1,0.6,452.499,13.65,0.084,283.7
01,2021-11-18T13:30:00,500.0,42.79,6.0312,-0.082,0.018,0.01,47.0,42.0,42.0,12.6,1505.8,333.7,0.1,0.6,452.499,13.64,0.083,282.4
01,2021-11-18T14:00:00,500.0,42.79,6.0312,-0.088,0.017,0.015,47.0,43.0,42.0,12.6,1505.9,333.9,-0.3,0.6,452.468,13.66,0.089,280.9
01,2021-11-18T14:30:00,500.0,42.79,6.0312,-0.082,0.02,0.002,48.0,46.0,43.0,12.6,1506.0,332.0,-0.4,0.6,452.509,13.68,0.084,283.7
01,2021-11-18T15:00:00,500.0,42.79,6.0312,-0.078,0.025,0.007,49.0,42.0,41.0,12.7,1505.9,326.3,-0.5,0.7,452.491,13.67,0.081,287.8
01,2021-11-18T15:30:00,500.0,42.79,6.0312,-0.075,0.018,0.012,49.0,45.0,44.0,12.6,1505.9,329.3,-0.2,0.6,452.46,13.67,0.077,283.5
01,2021-11-18T16:00:00,500.0,42.79,6.0312,-0.079,0.006,0.01,48.0,43.0,46.0,12.6,1505.9,319.2,0.0,0.6,452.525,13.65,0.079,274.3
01,2021-11-18T16:30:00,500.0,42.79,6.0312,-0.069,0.009,0.003,47.0,43.0,43.0,12.6,1505.9,331.7,-0.8,0.8,452.589,13.65,0.069,277.4
01,2021-11-18T17:00:00,500.0,42.79,6.0312,-0.074,-0.005,0.01,46.0,45.0,43.0,12.6,1505.9,316.8,0.1,0.5,452.528,13.65,0.074,266.1
01,2021-11-18T17:30:00,500.0,42.79,6.0312,-0.078,0.001,-0.005,47.0,43.0,43.0,12.6,1505.9,322.4,0.2,0.7,452.575,13.65,0.078,270.7
01,2021-11-18T18:00:00,500.0,42.79,6.0312,-0.082,0.006,0.006,47.0,43.0,43.0,12.6,1505.9,324.7,-0.4,0.5,452.63,13.65,0.082,274.2
01,2021-11-18T18:30:00,500.0,42.79,6.0312,-0.089,0.001,-0.019,49.0,42.0,43.0,12.6,1505.9,321.3,-0.6,0.4,452.624,13.66,0.088,270.6
01,2021-11-18T19:00:00,500.0,42.79,6.0312,-0.087,0.006,0.012,48.0,43.0,44.0,12.6,1506.0,315.1,-0.2,0.6,452.611,13.68,0.087,273.9
01,2021-11-18T19:30:00,500.0,42.79,6.0312,-0.112,0.013,0.0,47.0,42.0,42.0,12.6,1506.0,314.6,-0.3,0.6,452.631,13.69,0.112,276.6
01,2021-11-18T20:00:00,500.0,42.79,6.0312,-0.102,0.0,0.001,46.0,44.0,42.0,12.6,1505.9,313.4,0.1,0.5,452.65,13.67,0.102,270.0
01,2021-11-18T20:30:00,500.0,42.79,6.0312,-0.103,0.007,0.01,49.0,43.0,44.0,12.6,1505.9,320.9,-0.5,0.7,452.582,13.66,0.103,273.9
01,2021-11-18T21:00:00,500.0,42.79,6.0312,-0.101,-0.031,0.004,48.0,44.0,44.0,12.6,1505.9,303.5,-0.2,0.4,452.557,13.65,0.105,252.9
